Location: 10048 Water Well
(33.8501°N, 106.8364°W)
Time: 01:20:06
(UTC+00:00)

IGS 5A - Pass Details

Date: 11 December 2025
Orbit: 551 x 554 km, 97.4° (Epoch: 8 January)

Event Time Altitude Azimuth Distance (km) Brightness Sun altitude
Rises 12:46:10 0° 14° (NNE) 2,738 6.8 -15.5°
Reaches altitude 10° 12:48:20 10° 17° (NNE) 1,839 6.0 -15.0°
Maximum altitude 12:52:17 67° 101° (E) 602 3.7 -14.3°
Drops below altitude 10° 12:56:13 10° 184° (S) 1,824 6.2 -13.5°
Sets 12:58:20 0° 187° (S) 2,713 7.0 -13.1°
